CST,Max TemperatureF,Mean TemperatureF,Min TemperatureF,Max Dew PointF,MeanDew PointF,Min DewpointF,Max Humidity, Mean Humidity, Min Humidity, Max Sea Level PressureIn, Mean Sea Level PressureIn, Min Sea Level PressureIn, Max VisibilityMiles, Mean VisibilityMiles, Min VisibilityMiles, Max Wind SpeedMPH, Mean Wind SpeedMPH, Max Gust SpeedMPH,PrecipitationIn, CloudCover, Events, WindDirDegrees
2013-1-1,37,30,22,36,29,18,100,87,74,30.25,30.14,30.05,7,5,1,16,9,18,T,7,,11
2013-1-2,33,25,17,20,15,12,84,65,45,30.32,30.27,30.23,10,10,7,9,2,10,0.00,0,,9
2013-1-3,40,29,18,26,21,15,92,73,54,30.44,30.36,30.26,10,9,6,12,3,14,0.00,0,,259
2013-1-4,43,32,20,30,25,19,96,77,57,30.48,30.42,30.38,10,8,3,13,5,18,0.00,0,,238
2013-1-5,43,33,23,31,28,20,88,75,62,30.39,30.31,30.22,10,9,7,12,5,15,0.00,6,,212
2013-1-6,42,32,22,34,28,20,96,78,59,30.42,30.26,30.15,10,8,4,16,6,21,0.00,3,,261
2013-1-7,45,32,18,27,22,15,92,69,45,30.50,30.37,30.23,10,7,2,10,2,13,0.00,0,,139
2013-1-8,55,40,24,35,30,21,88,65,41,30.29,30.22,30.19,10,9,7,12,3,15,0.00,0,,176
2013-1-9,57,50,43,46,41,36,92,76,59,30.43,30.37,30.24,10,9,6,15,5,18,0.02,4,Rain,75
2013-1-10,66,56,46,63,53,39,100,91,74,30.42,30.11,29.86,10,5,1,25,11,39,0.63,8,Rain,129
2013-1-11,62,58,54,56,51,47,93,79,64,29.99,29.93,29.87,10,10,8,18,9,25,T,3,Rain-Thunderstorm,209
2013-1-12,69,60,50,64,61,50,100,89,78,29.96,29.86,29.68,10,5,0,24,8,38,3.16,7,Fog-Rain-Thunderstorm,181
2013-1-13,50,38,25,48,33,19,92,84,75,30.33,29.99,29.77,10,6,1,25,12,31,1.97,8,Rain-Snow-Thunderstorm,350
2013-1-14,28,24,20,20,18,14,88,79,69,30.44,30.39,30.34,10,10,10,17,11,25,0.00,2,,15
2013-1-15,33,27,21,27,23,19,92,77,61,30.35,30.20,30.09,10,6,2,20,10,24,0.14,7,Rain-Snow,24
2013-1-16,33,31,28,27,25,24,92,81,69,30.17,30.13,30.08,9,8,5,10,2,13,0.00,3,,319
2013-1-17,46,35,24,34,27,22,92,76,60,30.51,30.29,30.12,10,9,3,22,7,28,0.00,2,,348
2013-1-18,47,35,22,28,24,19,92,71,49,30.57,30.45,30.29,10,10,8,15,5,18,0.00,0,,198
2013-1-19,57,47,37,36,31,25,70,55,40,30.29,30.18,30.06,10,10,10,25,13,33,0.00,0,,217
2013-1-20,46,37,27,35,21,10,85,54,23,30.31,30.24,30.13,10,10,10,15,8,20,0.00,0,,352
2013-1-21,35,29,23,17,11,4,68,52,35,30.37,30.32,30.25,10,10,10,20,9,25,0.00,1,,334
2013-1-22,26,22,17,8,2,-2,56,44,32,30.50,30.42,30.38,10,10,10,12,4,14,0.00,4,,31
2013-1-23,46,33,19,29,20,6,85,63,40,30.39,30.27,30.16,10,10,10,14,5,16,0.00,0,,224
2013-1-24,34,28,21,23,12,7,75,56,36,30.56,30.42,30.27,10,10,10,22,13,29,0.00,2,,60
2013-1-25,41,34,27,27,23,8,92,64,36,30.26,30.17,30.12,10,8,3,13,5,15,0.03,6,Rain,53
2013-1-26,47,35,23,29,23,19,92,65,37,30.38,30.32,30.25,10,7,2,10,4,13,0.00,0,,59
2013-1-27,52,40,27,44,36,20,100,85,69,30.32,30.21,30.09,10,6,2,16,8,31,0.12,6,Rain,127
2013-1-28,64,58,51,58,54,45,100,84,67,30.11,30.06,30.01,10,7,2,15,10,31,0.14,7,Rain,188
2013-1-29,71,63,54,61,56,52,90,78,66,30.00,29.74,29.43,10,8,2,32,13,44,0.51,6,Rain-Thunderstorm,194
2013-1-30,56,45,33,52,42,20,100,80,59,29.94,29.56,29.43,10,9,2,32,13,44,0.78,7,Rain,242
2013-1-31,41,31,20,32,23,6,92,72,51,30.35,30.11,29.96,10,8,1,22,14,31,0.03,6,Snow,284